This demonstration page uses our WeatherBlox Daily Observations layout. Learn more.

Left ArrowRight Arrow

Hourly Observations for December 27, 2015

Temp ( °F °C ) Dew Point ( °F °C ) Humidity (%) Winds ( mph kmh ) Pressure ( in mb ) Visibility ( mi km ) Precip ( " mm )
12:53 am 00:53 Mostly Clear 67 19.4 64 17.8 91 91 Calm 30.14 1021 10 16 0.00 0.00
1:53 am 01:53 Mostly Cloudy with Mist and Fog 62 16.7 61 16.1 96 96 Calm 30.13 1020 4 6 0.00 0.00
1:59 am 01:59 Mostly Cloudy with Mist and Fog 63 17.2 61 16.1 93 93 Calm 30.15 1021 3 4 0.00 0.00
2:09 am 02:09 Cloudy with Mist and Fog 63 17.2 62 16.7 97 97 Calm 30.15 1021 5 8 0.00 0.00
2:53 am 02:53 Partly Cloudy 64 17.8 63 17.2 96 96 Calm 30.13 1020 9 14 0.00 0.00
3:53 am 03:53 Partly Cloudy 67 19.4 64 17.8 91 91 SSE 3 6 30.11 1020 10 16 0.00 0.00
4:01 am 04:01 Mostly Cloudy 67 19.4 64 17.8 91 91 SSE 7 11 30.15 1021 10 16 0.00 0.00
4:53 am 04:53 Cloudy 67 19.4 65 18.3 93 93 SSE 6 9 30.11 1020 10 16 0.00 0.00
5:53 am 05:53 Cloudy 68 20 65 18.3 90 90 SE 6 9 30.12 1020 10 16 0.00 0.00
6:53 am 06:53 Cloudy 67 19.4 65 18.3 93 93 SE 8 13 30.12 1020 9 14 0.00 0.00
7:53 am 07:53 Cloudy 67 19.4 65 18.3 93 93 SSE 8 13 30.10 1019 10 16 0.00 0.00
8:53 am 08:53 Cloudy 68 20 65 18.3 90 90 SSW 5 7 30.11 1020 9 14 0.00 0.00
9:53 am 09:53 Cloudy 69 20.6 66 18.9 90 90 SSW 6 9 30.12 1020 10 16 0.00 0.00
10:53 am 10:53 Cloudy 70 21.1 65 18.3 84 84 SSE 7 11 30.11 1020 10 16 0.00 0.00
11:53 am 11:53 Cloudy 71 21.7 66 18.9 84 84 S 6 9 30.09 1019 10 16 0.00 0.00
12:25 pm 12:25 Cloudy 72 22.2 66 18.9 82 82 S 8 13 30.06 1018 10 16 0.00 0.00
12:53 pm 12:53 Cloudy 73 22.8 66 18.9 79 79 SSW 7 11 30.04 1017 10 16 0.00 0.00
1:53 pm 13:53 Cloudy 75 23.9 65 18.3 71 71 S 6 9 30.03 1017 10 16 0.00 0.00
2:06 pm 14:06 Mostly Cloudy 75 24 64 18 69 69 S 8 13 30.00 1016 10 16 0.00 0.00
2:53 pm 14:53 Cloudy 74 23.3 66 18.9 76 76 S 7 11 30.01 1016 10 16 0.00 0.00
3:08 pm 15:08 Mostly Cloudy 75 24 66 19 74 74 S 6 9 30.00 1016 10 16 0.00 0.00
3:53 pm 15:53 Mostly Cloudy 76 24.4 65 18.3 69 69 S 10 17 29.99 1016 10 16 0.00 0.00
4:53 pm 16:53 Partly Cloudy 74 23.3 64 17.8 71 71 S 7 11 29.99 1016 10 16 0.00 0.00
5:53 pm 17:53 Clear 71 21.7 64 17.8 79 79 Calm 30.01 1016 10 16 0.00 0.00
6:53 pm 18:53 Clear 67 19.4 63 17.2 87 87 Calm 30.01 1016 10 16 0.00 0.00
7:53 pm 19:53 Partly Cloudy 65 18.3 63 17.2 93 93 Calm 30.03 1017 10 16 0.00 0.00
8:53 pm 20:53 Mostly Clear 64 17.8 63 17.2 96 96 Calm 30.03 1017 8 13 0.00 0.00
9:53 pm 21:53 Mostly Clear 69 20.6 66 18.9 90 90 ESE 5 7 30.01 1016 10 16 0.00 0.00
10:53 pm 22:53 Clear 69 20.6 66 18.9 90 90 ESE 6 9 30.01 1016 10 16 0.00 0.00
11:53 pm 23:53 Mostly Cloudy 69 20.6 65 18.3 87 87 ESE 7 11 30.00 1016 10 16 0.00 0.00

Powered by AerisWeather